Location: Newark
(29.4733°N, 82.6067°W)
Time: 04:18:41
(UTC+00:00)

STARLINK-3101 - Pass Details

Date: 28 September 2021
Orbit: 357 x 362 km, 70.0° (Epoch: 16 October)

Event Time Altitude Azimuth Distance (km) Brightness Sun altitude
Rises 10:53:48 0° 173° (S) 2,167 6.7 -7.0°
Reaches altitude 10° 10:56:05 10° 156° (SSE) 1,328 5.9 -6.5°
Maximum altitude 10:58:18 20° 106° (ESE) 903 5.9 -6.0°
Drops below altitude 10° 11:00:32 10° 56° (NE) 1,336 6.6 -5.5°
Sets 11:02:50 0° 38° (NE) 2,186 7.3 -5.0°
